Location: Unnamed
(47.6264°N, 122.3366°W)
Time: 22:28:15
(UTC-07:00)

ELYUSIUM/LOWER FREE FLYE - Pass Details

Date: 05 August 2020
Orbit: 571 x 589 km, 97.7° (Epoch: 21 September)

Event Time Altitude Azimuth Distance (km) Brightness Sun altitude
Exits shadow 00:05:48 15° 251° (WSW) 1,559 ? -23.7°
Maximum altitude 00:06:48 17° 269° (W) 1,501 ? -23.8°
Drops below altitude 10° 00:09:27 10° 310° (NW) 1,888 ? -23.9°
Sets 00:12:18 0° 331° (NNW) 2,795 ? -24.0°
